GLOBALSTAR M074 [+]

Last updated on Fri Dec 29 2023 00:02:56 GMT+0000 (Coordinated Universal Time)

1 37189U 10054B 23362.10185914 -.00000098 00000+0 30132-4 0 9993 2 37189 52.0038 334.1657 0000414 49.6133 28.3609 12.62263492609305
UTC large
Height (km)
Speed (km/s)
/
Latitude / Longitude
Inclination (degrees)
Orbital Period (minutes)
Azimuth
Elevation
Range (km)
Doppler Factor

Next 0 passes for location: London (51.5072 / 0.1276)

Sorry there are no passes over London.